Tracking 18984 objects as of 24-Feb-2018
HD Live streaming from Space Station
objects crossing your sky now

COSMOS 371

Track COSMOS 371 now!
10-day predictions
COSMOS 371 is classified as:


NORAD ID: 4578
Int'l Code: 1970-083A
Perigee: 718.4 km
Apogee: 722.1 km
Inclination: 74.0 °
Period: 99.0 minutes
Semi major axis: 7091 km
RCS: 2.5963 m2 (large)
Launch date: October 12, 1970
Source: Commonwealth of Independent States (former USSR) (CIS)
Launch site: PLESETSK MISSILE AND SPACE COMPLEX (PKMTR)
aabbcc
Your satellite tracking list
Your tracking list is empty




NASA's NSSDC Master Catalog

Two Line Element Set (TLE):
1 04578U 70083A   18054.47077288  .00000026  00000-0  12930-4 0  9990
2 04578  74.0000 167.7146 0002582 192.1736 167.9364 14.53855094504701
Source of the keplerian elements: AFSPC